Wetbulb
44.25 43.80 43.07 42.12 42.28 43.14 44.03 44.24 42.38 42.30 43.40 45.00 45.38 45.44 45.44 45.68 45.49 45.27 44.97 44.54 44.58 45.13 45.88 47.09 47.56 46.60 45.05 43.70 43.08 42.87 42.83 42.92 42.72 42.07 41.47 41.61 42.02 42.18 42.13 42.04 41.85 41.69 41.62 41.86 42.56 43.23 43.71 43.79 44.13 44.35 44.35 43.71 42.91 42.26 41.89 41.68 41.22 41.01 40.91 41.10 41.04 40.79 40.32 40.23 40.72 41.22 41.44 41.44 42.02
43.92 43.05 42.19 40.86 40.93 42.43 44.06 44.41 44.09 43.93 44.26 45.34 45.46 45.30 45.18 45.57 45.97 45.91 45.51 44.75 44.71 44.84 45.14 45.90 45.60 44.99 44.28 43.86 43.50 43.22 43.10 42.98 43.15 42.80 42.47 42.34 42.46 42.37 42.16 41.83 41.66 41.44 41.37 41.51 42.34 43.09 43.53 43.22 43.18 43.34 43.29 42.85 41.67 40.89 40.54 40.46 40.34 40.32 40.43 40.75 41.08 41.14 41.16 41.22 41.45 41.80 42.07 42.43 42.65
43.47 43.34 43.28 43.34 43.64 44.19 44.76 45.22 45.41 45.30 45.05 44.64 44.40 44.33 44.59 45.07 45.55 45.59 45.35 44.96 44.54 44.33 44.07 43.98 44.04 43.89 43.74 43.73 43.90 43.95 43.86 43.60 43.67 43.65 43.57 43.28 42.97 42.50 42.09 41.68 41.43 41.20 41.23 41.52 42.00 42.35 42.28 41.91 41.87 41.64 41.44 41.18 40.04 39.43 39.25 39.23 39.47 39.73 40.04 40.52 40.98 41.25 41.34 41.24 41.12 41.64 42.12 42.39 42.12
43.34 43.67 43.96 43.93 43.66 43.60 43.95 44.68 44.73 44.79 44.93 45.04 44.47 44.19 44.06 44.15 44.67 44.58 44.36 44.19 44.33 44.45 44.36 44.31 44.27 43.99 43.80 43.78 43.92 44.06 44.14 43.59 43.80 43.82 43.72 43.36 43.14 42.58 42.07 41.70 41.50 41.36 41.40 41.41 41.26 41.08 40.75 40.66 40.81 40.67 40.19 39.45 38.52 38.17 38.19 38.52 38.56 38.94 39.51 40.00 40.08 40.13 40.09 39.91 39.98 40.32 40.60 40.59 40.32
43.22 43.48 43.71 43.72 43.20 43.25 43.40 43.78 43.84 44.05 44.55 45.09 45.23 45.16 44.88 44.22 43.44 42.96 42.88 43.44 43.95 44.49 44.82 45.07 44.87 44.41 44.04 44.02 44.15 44.37 44.36 43.95 43.04 43.36 43.80 43.27 43.13 42.74 42.43 41.98 41.53 41.09 40.93 40.82 40.63 40.32 39.94 39.53 40.17 40.03 39.57 38.89 38.37 37.78 37.49 37.53 37.73 37.95 38.46 39.10 39.01 38.74 38.62 38.57 38.76 38.76 38.56 38.12 37.90
42.76 42.74 42.79 43.04 42.77 42.83 43.11 43.38 43.42 43.61 43.78 44.29 44.45 44.57 44.73 44.83 44.10 43.22 42.66 42.94 43.31 43.65 43.95 44.12 44.50 44.49 44.59 44.98 44.84 44.62 44.48 44.26 43.85 43.66 43.48 43.03 42.76 42.36 41.91 41.38 40.95 40.68 40.55 40.48 40.10 39.64 39.37 39.03 39.63 39.45 38.93 38.68 37.89 37.34 37.03 37.06 36.98 36.95 37.17 37.47 37.95 37.95 37.86 37.61 37.61 37.33 36.82 36.06 35.48
42.11 42.07 42.05 42.13 42.20 42.32 42.43 42.61 43.02 43.12 43.27 43.55 43.42 43.58 43.85 44.32 44.40 43.78 43.10 42.71 42.79 42.74 42.99 43.50 44.35 45.08 45.65 45.69 45.15 44.57 44.29 43.93 43.57 43.17 42.90 42.40 42.17 41.78 41.38 41.20 40.73 40.42 40.15 40.03 39.59 39.34 39.07 38.74 39.08 38.60 37.89 37.66 37.53 36.93 36.55 36.68 36.38 36.11 35.93 35.87 36.34 36.57 36.68 36.47 36.43 36.11 35.46 34.21 33.63
41.75 41.56 41.44 41.51 41.58 41.67 41.63 41.76 42.14 42.31 42.74 43.33 43.43 43.42 43.50 43.52 43.98 44.05 43.69 43.00 42.26 42.11 42.35 43.35 43.96 44.73 45.34 45.78 44.67 44.00 43.50 42.83 42.51 42.28 42.10 41.92 41.66 41.45 41.19 40.97 40.62 40.18 39.74 39.52 39.19 38.64 38.38 38.31 38.43 37.79 37.19 37.07 36.80 36.28 35.78 35.45 35.31 34.97 34.65 34.41 34.65 34.58 34.35 33.93 34.15 34.09 33.73 32.85 32.77
41.28 41.19 41.14 41.26 41.26 41.24 41.35 41.55 41.63 41.73 42.10 42.68 43.01 43.07 42.90 42.36 42.57 42.77 42.76 42.27 41.37 41.24 41.62 42.23 42.30 42.75 43.33 43.63 42.93 42.46 42.11 41.58 41.37 41.22 41.25 41.17 40.80 40.67 40.75 40.77 40.13 39.66 38.99 38.46 38.05 37.44 37.20 37.39 37.35 37.21 36.91 36.60 35.98 35.28 34.60 34.08 33.19 32.60 32.22 32.33 32.41 32.53 32.65 32.77 32.63 32.63 32.63 32.47 32.83
40.34 40.46 40.63 40.84 40.82 41.12 41.38 41.64 41.73 41.90 42.11 42.57 42.72 42.57 42.02 40.93 41.27 41.53 41.61 41.41 40.91 40.82 40.89 41.05 40.89 40.90 40.83 40.86 40.92 40.89 40.84 40.65 40.38 40.24 40.15 40.12 39.80 39.77 39.88 40.05 39.29 38.60 37.92 37.38 37.25 36.93 36.58 36.69 36.31 36.14 35.87 35.52 34.57 33.76 33.22 32.62 31.22 30.44 30.29 31.13 30.83 30.54 30.60 31.12 31.15 31.47 31.88 32.47 32.72
39.64 40.03 40.38 40.83 40.93 41.26 41.67 41.84 42.06 42.30 42.41 42.48 42.40 42.10 41.79 41.04 41.08 41.13 41.10 41.16 40.76 40.44 40.28 40.44 40.28 40.09 40.07 40.04 40.18 40.26 40.42 40.49 40.22 39.89 39.61 39.45 39.41 39.33 39.16 38.79 38.03 37.36 36.90 36.83 36.84 36.62 36.30 35.87 35.29 34.97 34.59 34.24 33.51 32.84 32.00 31.04 30.06 29.41 29.19 29.58 29.33 29.21 29.24 29.46 29.95 30.41 30.84 31.24 31.37
39.52 40.11 40.69 41.12 41.46 41.78 41.92 41.94 42.19 42.12 41.87 41.57 41.48 41.46 41.48 41.46 41.14 41.01 40.80 40.70 40.15 40.03 40.15 40.41 40.57 40.51 40.53 40.68 40.73 40.67 40.49 40.35 39.97 39.60 39.27 38.93 38.75 38.48 37.98 37.26 36.71 36.46 36.40 36.52 36.43 36.08 35.50 34.76 34.15 33.51 32.89 32.41 32.05 31.64 30.95 30.11 29.31 28.91 28.71 28.98 28.81 28.61 28.39 28.38 28.73 29.21 29.64 29.79 29.99
39.67 40.41 40.94 41.39 41.61 41.63 41.64 41.48 41.53 41.18 40.72 40.39 40.53 40.59 40.74 40.79 40.64 40.54 40.43 40.17 39.96 40.17 40.52 40.82 41.03 41.12 41.02 40.93 40.96 40.87 40.57 40.15 39.48 38.83 38.25 37.79 37.43 37.04 36.66 36.24 36.05 35.95 35.82 35.77 35.53 35.04 34.37 33.40 32.49 31.63 30.83 30.45 30.31 30.13 29.93 29.47 28.65 28.33 28.28 28.26 28.19 28.05 28.04 28.10 28.29 28.47 28.59 28.73 29.11
39.90 40.53 40.96 41.17 41.06 40.98 40.82 40.54 40.50 40.16 39.62 39.35 39.54 39.77 39.91 40.13 39.97 40.03 40.04 40.16 40.31 40.60 40.91 41.13 41.08 41.08 41.13 40.98 40.84 40.53 40.05 39.18 38.32 37.44 36.72 36.20 36.07 36.00 35.88 35.81 35.42 34.97 34.62 34.31 34.09 33.78 33.15 32.07 31.12 30.36 29.83 29.36 29.02 29.00 29.18 29.13 28.22 27.99 27.98 27.63 27.76 27.79 28.03 28.16 28.12 28.08 28.05 28.16 28.21
39.97 40.42 40.66 40.50 40.25 40.01 39.77 39.48 39.47 39.15 38.75 38.51 38.81 39.00 39.20 39.47 39.47 39.66 39.99 40.49 40.71 40.95 41.17 41.04 40.99 40.86 40.80 40.79 40.44 39.83 39.11 38.05 37.12 36.43 35.83 35.23 35.07 34.97 34.90 34.73 34.04 33.49 33.19 33.12 32.99 32.70 32.29 31.69 30.81 30.22 29.63 29.04 28.58 28.41 28.30 28.45 27.81 27.65 27.64 27.36 27.31 27.22 27.26 27.19 27.12 27.11 27.08 27.18 27.11
39.79 40.05 40.00 39.79 39.30 38.97 38.72 38.58 38.61 38.38 38.04 37.88 38.10 38.48 38.79 39.12 39.47 39.61 39.89 40.16 40.60 40.86 40.82 40.53 40.48 40.43 40.35 39.85 39.56 38.79 37.84 36.83 36.25 35.72 35.31 34.64 34.10 33.82 33.68 33.47 32.85 32.46 32.25 32.35 31.90 31.72 31.72 31.81 31.12 30.40 29.76 29.05 28.35 27.68 27.18 27.27 26.93 26.83 26.70 26.66 26.51 26.29 26.10 26.02 25.87 25.75 25.84 26.10 25.71
39.39 39.37 39.20 38.86 38.35 38.04 37.77 37.61 37.62 37.58 37.46 37.40 37.92 38.29 38.82 39.11 39.35 39.29 39.29 39.41 39.93 39.94 39.73 39.52 39.68 39.57 39.22 38.58 38.00 37.29 36.57 36.01 35.69 35.25 34.76 34.15 33.41 33.03 32.76 32.50 32.09 31.71 31.52 31.45 30.91 30.60 30.51 30.76 30.74 30.36 29.87 29.05 28.03 27.20 26.49 26.42 26.09 25.96 25.92 25.82 25.58 25.49 25.34 25.22 24.89 24.72 24.69 24.80 24.50
38.68 38.53 38.40 38.05 37.61 37.33 37.12 36.89 36.87 37.00 37.38 38.03 38.70 39.08 39.49 39.72 39.55 39.43 39.30 39.30 39.41 39.12 38.78 38.83 38.96 38.66 38.12 37.36 36.54 35.92 35.52 35.29 34.92 34.67 34.41 33.97 33.29 32.70 32.29 32.05 31.53 31.09 30.75 30.43 30.26 29.98 29.81 29.86 30.15 29.75 28.88 28.04 26.82 26.07 25.68 25.55 25.37 25.24 25.02 24.79 24.69 24.66 24.51 24.39 24.04 23.95 23.92 23.86 24.06
37.82 37.76 37.53 37.26 37.09 36.84 36.67 36.33 36.44 36.95 37.76 38.57 39.41 39.84 40.04 40.17 40.07 39.81 39.57 39.39 39.13 38.92 38.76 38.40 38.08 37.44 36.65 36.05 35.63 35.14 34.75 34.55 34.33 34.16 34.02 33.73 32.97 32.20 31.69 31.44 30.73 30.16 29.74 29.69 29.46 29.35 29.39 29.49 29.44 28.76 27.54 26.50 25.45 24.88 24.52 24.30 24.12 24.02 23.99 23.99 24.01 23.95 23.86 23.60 23.42 23.36 23.30 23.20 23.49
37.17 36.95 36.84 36.77 36.68 36.59 36.48 36.50 36.68 37.01 37.48 37.91 38.42 38.87 39.30 39.68 39.73 39.33 39.03 38.79 38.72 38.58 38.29 37.52 36.61 35.89 35.41 35.33 35.08 34.65 34.29 34.03 33.85 33.70 33.34 32.95 31.89 31.11 30.69 30.28 29.66 29.17 28.78 28.82 28.66 28.49 28.28 28.06 28.12 27.50 26.49 25.62 24.95 24.21 23.61 23.23 23.08 23.02 23.07 23.28 23.34 23.30 23.22 23.07 22.88 22.72 22.59 22.58 22.77
36.44 36.43 36.45 36.48 36.33 36.24 36.33 36.76 37.15 37.50 37.67 37.80 38.05 38.13 38.17 38.16 38.04 37.98 37.93 37.97 38.30 38.02 37.18 36.11 35.26 34.95 34.71 34.73 34.41 33.97 33.54 33.15 32.88 32.30 31.69 31.11 30.38 29.82 29.47 29.46 29.09 28.80 28.42 28.22 28.22 28.05 27.76 27.53 27.27 26.43 25.53 24.80 24.26 23.72 23.19 22.66 22.37 22.22 22.22 22.22 22.40 22.49 22.41 22.11 21.98 21.83 21.78 21.96 22.18
35.96 36.13 36.17 36.24 36.11 36.01 36.13 36.58 37.20 37.51 37.64 37.80 37.91 37.67 37.42 37.33 37.12 37.03 37.06 37.08 36.50 35.53 34.67 34.19 34.19 34.12 33.97 33.64 33.11 32.56 31.98 31.46 30.98 30.37 29.71 29.18 28.76 28.50 28.68 29.23 28.93 28.42 27.96 27.37 26.95 26.77 26.77 26.86 26.07 25.23 24.24 23.49 23.10 22.99 23.07 22.96 22.04 21.48 21.28 21.22 21.35 21.39 21.25 21.01 20.92 20.99 21.19 21.49 21.91
35.79 36.00 36.03 36.03 35.90 35.66 35.55 35.71 36.18 36.49 36.60 36.70 36.70 36.64 36.51 36.54 36.47 36.20 35.79 35.07 33.68 32.87 32.59 32.63 32.81 32.52 32.19 31.85 31.47 31.00 30.45 29.88 29.31 28.60 27.90 27.29 27.13 27.51 28.22 28.77 27.91 27.09 26.51 26.48 26.20 25.85 25.38 25.03 24.19 23.29 22.63 22.19 21.90 22.04 22.48 22.98 22.60 21.81 21.08 20.82 20.63 20.57 20.41 20.18 20.15 20.24 20.76 21.35 22.00
35.74 35.65 35.68 35.87 35.81 35.70 35.43 35.38 35.66 35.93 35.97 35.90 35.70 35.56 35.25 34.92 34.53 33.85 33.01 32.12 31.89 31.82 31.71 31.51 31.31 31.23 31.11 30.84 30.59 30.19 29.59 28.84 28.27 27.63 26.99 26.06 25.96 26.78 27.59 27.46 26.07 25.56 25.77 26.54 27.90 27.62 26.30 24.24 23.08 22.28 21.78 21.63 21.60 21.69 22.07 22.49 22.04 21.79 21.39 20.87 20.48 20.07 19.67 19.61 19.49 19.99 20.54 20.79 21.60
35.58 35.34 35.20 35.51 35.64 35.32 34.93 34.69 35.02 35.20 35.37 35.23 35.09 34.83 34.30 33.50 32.41 31.48 30.89 30.88 30.97 30.81 30.71 30.48 30.38 30.52 30.53 30.39 30.06 29.55 28.93 28.27 27.61 27.01 26.42 25.86 25.97 26.54 26.68 25.29 24.46 24.84 26.10 28.02 32.87 33.10 30.80 27.61 25.60 23.49 21.96 21.51 21.96 22.58 23.05 23.10 22.43 21.79 21.41 21.17 20.51 19.82 19.26 19.09 19.16 19.71 20.24 20.40 21.03
35.40 35.17 34.93 34.99 34.78 34.27 33.87 33.50 33.73 33.80 33.82 33.68 33.10 32.57 32.07 31.39 31.22 30.94 30.88 30.67 30.45 30.37 30.30 30.13 29.95 29.96 29.94 29.63 29.20 28.72 28.26 27.85 27.34 26.59 26.05 25.91 26.53 26.50 25.63 23.77 23.75 25.04 27.86 32.25 35.13 35.10 33.67 32.34 30.31 27.05 23.90 22.38 22.58 22.75 22.84 22.34 21.99 21.50 20.93 20.51 20.01 19.39 18.92 18.82 18.88 19.27 19.98 20.76 20.80
34.65 34.57 34.56 34.50 33.88 33.51 33.02 32.55 32.39 32.15 31.81 31.44 30.86 30.87 31.01 31.27 31.04 30.62 30.22 29.76 29.78 29.95 29.90 29.70 29.53 29.51 29.29 28.73 28.31 27.98 27.66 27.33 27.08 26.92 27.06 27.61 27.11 25.83 24.30 23.11 23.37 25.51 29.43 34.60 35.56 35.35 34.53 33.77 32.54 30.38 27.40 24.07 23.36 22.72 22.15 21.00 20.85 20.62 20.27 19.61 19.05 18.70 18.47 18.49 18.75 19.30 19.94 20.69 20.73
33.59 33.70 33.68 33.28 32.67 32.35 31.95 31.12 30.68 30.42 30.28 30.28 30.63 31.23 31.51 31.25 30.53 29.82 29.44 29.41 29.35 29.16 29.01 28.88 28.96 28.71 28.25 27.93 27.41 27.20 27.17 27.14 27.14 27.63 28.04 28.14 26.14 24.65 23.64 23.17 22.93 25.52 30.17 35.43 35.58 35.32 34.83 34.35 33.59 32.46 30.04 25.69 23.66 22.46 21.58 20.41 19.96 19.52 19.14 18.82 18.45 18.12 18.14 18.28 18.76 19.32 19.86 20.19 20.51
32.79 33.02 32.96 32.56 32.32 31.84 31.09 30.29 30.09 30.02 30.25 30.67 31.05 31.19 31.09 30.49 29.78 29.42 29.13 28.97 28.61 28.37 28.15 28.15 27.95 27.73 27.42 27.17 26.70 26.55 26.71 27.06 27.17 27.39 27.33 26.26 24.57 23.85 23.64 23.60 23.19 26.24 31.12 35.88 35.65 35.38 35.00 34.77 34.21 33.56 32.20 29.57 24.30 21.19 19.74 19.31 19.04 18.65 18.30 18.21 17.96 17.82 17.87 18.15 18.68 19.17 19.54 19.82 20.13
32.91 32.98 32.72 32.63 32.38 31.83 31.17 30.35 30.33 30.40 30.56 30.72 30.94 30.64 30.06 29.38 28.95 28.60 28.42 28.01 27.87 27.80 27.72 27.42 27.08 26.89 26.78 26.48 26.21 26.18 26.35 26.76 27.06 26.84 26.20 25.68 25.33 24.91 24.64 24.98 24.33 27.19 31.60 35.47 35.61 35.48 35.14 34.88 34.43 33.92 33.30 32.34 26.11 21.31 18.56 18.15 17.97 18.06 18.06 18.06 17.81 17.70 17.80 18.21 18.65 19.08 19.43 19.72 19.74
32.76 32.52 32.04 31.69 31.56 31.31 30.83 30.30 30.33 30.40 30.62 30.51 30.32 29.83 29.21 28.52 28.29 28.12 27.91 27.78 27.77 27.58 27.36 27.19 26.84 26.65 26.45 26.26 26.01 25.92 26.09 26.48 27.00 26.78 26.09 25.52 25.24 24.98 25.07 25.52 25.33 27.47 30.84 34.63 35.21 35.32 35.21 35.00 34.67 34.23 33.82 33.32 27.50 22.22 18.70 18.03 17.74 17.65 17.74 17.68 17.66 17.76 17.97 18.62 19.23 19.37 19.31 19.22 19.18
32.26 31.70 31.12 30.72 30.83 30.85 30.85 30.47 30.36 30.27 30.05 29.77 29.65 29.29 28.81 28.45 28.34 28.44 28.45 28.33 28.10 27.99 28.04 28.01 27.44 26.81 26.15 25.58 25.58 25.67 25.86 26.18 26.23 25.89 25.41 24.81 24.75 24.98 25.35 25.57 25.83 27.17 29.84 33.90 34.71 34.92 34.91 34.93 34.67 34.34 33.98 33.49 28.69 23.63 19.62 18.35 17.70 17.32 17.27 17.22 17.62 18.09 18.57 19.34 19.61 19.67 19.38 18.94 18.74
31.58 30.97 30.56 30.26 30.72 31.04 31.08 30.83 30.33 29.83 29.34 29.13 29.26 29.19 29.08 29.05 29.42 29.67 29.79 29.77 29.59 29.63 29.48 28.99 27.63 26.32 25.38 25.05 25.25 25.53 25.81 25.90 25.45 25.33 25.18 24.95 25.29 25.57 25.69 25.57 26.00 28.14 31.13 33.82 34.21 34.44 34.54 34.63 34.57 34.35 34.06 33.78 28.80 23.64 19.47 17.84 17.07 16.75 16.70 16.95 17.88 18.56 19.15 19.70 19.96 19.76 19.29 18.62 18.53
30.85 30.56 30.47 30.44 30.90 31.08 30.85 30.06 29.34 28.75 28.51 28.93 29.35 29.65 29.98 30.41 30.87 31.12 31.32 31.38 31.31 31.03 30.29 28.97 27.17 25.85 25.15 25.00 25.70 25.78 25.53 25.16 24.97 24.96 25.01 25.04 25.41 25.55 25.38 24.90 25.42 28.58 32.04 33.47 33.69 34.00 34.27 34.50 34.52 34.49 34.22 33.98 28.02 22.75 18.88 17.52 16.78 16.64 16.82 17.36 18.37 19.29 20.23 20.68 20.29 19.68 19.00 18.38 18.38
30.74 30.47 30.65 30.79 31.08 30.99 30.10 28.73 28.21 28.18 28.72 29.48 30.03 30.50 31.23 32.18 32.28 32.50 32.67 32.51 31.83 30.67 29.12 27.06 25.90 25.25 24.97 25.14 26.51 26.53 25.73 25.06 24.86 24.75 24.68 24.47 24.50 24.58 24.55 24.35 24.53 27.82 31.41 32.64 33.11 33.73 34.15 34.36 34.32 34.32 33.84 32.11 26.03 21.16 18.26 17.64 17.82 18.16 18.64 19.30 20.34 21.22 21.60 21.39 20.39 19.59 18.88 18.44 18.30
30.65 30.47 30.38 30.58 30.86 30.20 29.10 27.76 27.94 28.68 29.62 30.16 30.51 31.22 32.11 32.76 32.83 32.91 32.62 31.93 30.27 28.46 26.78 25.44 25.44 25.13 24.82 24.67 25.65 25.62 25.22 24.78 24.67 24.55 24.20 23.53 23.43 23.48 23.54 23.57 23.61 26.37 29.79 31.81 32.74 33.66 34.13 33.82 33.59 33.63 32.51 28.83 23.73 20.24 18.43 18.23 19.04 19.73 20.18 20.66 21.39 21.89 21.87 21.39 20.51 19.71 19.12 18.65 18.49
30.83 30.83 30.74 30.67 30.26 29.41 28.35 27.61 28.25 28.95 29.61 30.20 30.84 31.34 31.78 32.20 32.30 31.97 31.10 29.62 28.00 26.72 25.77 25.44 25.83 25.41 24.75 24.25 24.13 24.01 24.03 24.05 24.05 24.00 23.62 22.94 22.58 22.66 22.78 22.82 22.72 24.50 27.44 30.87 32.60 33.65 33.89 33.01 32.91 32.31 30.21 25.35 21.57 19.97 19.73 19.77 19.89 20.43 21.09 21.71 21.80 21.48 20.84 20.28 19.86 19.42 19.09 18.73 19.46
31.37 31.42 31.29 30.81 29.94 28.94 28.04 27.64 28.22 28.69 29.18 29.76 30.48 30.81 30.92 30.94 30.79 30.21 29.17 27.50 26.78 26.34 26.17 26.11 25.94 25.42 24.81 24.39 23.81 23.55 23.31 23.21 23.11 23.20 22.97 22.50 22.17 22.28 22.43 22.27 22.16 23.28 25.91 30.26 32.44 33.25 33.11 32.25 32.19 31.35 28.82 23.55 21.54 20.71 20.65 20.74 20.56 20.63 20.73 20.85 20.32 19.68 19.03 18.67 18.60 18.78 18.88 19.00 21.64
31.65 31.62 31.44 30.79 29.96 29.09 28.41 28.02 28.25 28.66 29.13 29.44 29.69 30.02 30.06 29.77 29.35 28.97 28.16 26.79 26.61 26.56 26.42 25.78 25.13 24.80 24.67 24.40 23.42 22.93 22.64 22.46 22.40 22.40 22.32 22.12 22.34 23.04 23.16 21.58 21.54 22.66 25.29 29.96 32.05 32.52 32.11 31.69 31.58 30.79 28.58 24.02 22.01 20.89 20.41 19.97 19.53 18.91 18.35 17.82 17.84 17.91 17.85 17.64 18.17 18.83 19.29 19.08 23.52
31.88 31.67 31.20 30.71 30.04 29.32 28.71 28.30 28.43 28.70 29.01 29.10 29.05 29.13 29.08 28.89 28.29 28.20 27.96 26.59 26.42 26.39 26.03 25.16 24.79 24.68 24.54 24.18 23.14 22.48 22.14 22.12 21.93 21.69 21.46 21.37 22.55 24.81 25.15 20.95 20.97 21.75 24.20 28.89 31.27 31.77 31.38 31.16 31.14 30.50 28.31 23.67 21.36 20.03 19.32 18.67 17.72 16.98 16.36 16.30 17.84 19.00 19.57 18.95 19.04 19.49 19.77 19.44 22.11
32.15 31.83 31.15 30.53 29.84 29.25 28.72 28.41 28.54 28.74 28.88 28.96 29.09 29.01 28.74 28.25 27.82 27.65 27.37 26.25 26.20 26.03 25.64 24.47 24.71 24.79 24.64 24.12 22.87 22.12 21.75 21.80 21.73 21.13 20.75 20.81 21.83 23.64 23.97 20.43 20.55 20.74 22.40 26.53 30.06 31.07 30.85 30.74 30.75 30.37 28.55 24.17 20.56 18.64 17.93 17.72 17.25 16.90 16.83 17.48 19.51 20.87 21.29 20.50 20.11 19.95 20.02 19.91 20.34
MSLP
1021.54 1021.50 1021.50 1021.50 1021.46 1021.34 1021.22 1021.06 1021.06 1020.94 1020.86 1020.78 1020.70 1020.58 1020.46 1020.34 1020.30 1020.30 1020.30 1020.34 1020.42 1020.54 1020.62 1020.62 1020.54 1020.42 1020.22 1020.10 1020.06 1020.10 1020.14 1020.18 1020.22 1020.34 1020.54 1020.78 1020.94 1020.90 1020.62 1020.18 1019.70 1019.38 1019.22 1019.18 1019.06 1018.98 1018.94 1018.90 1018.94 1019.10 1019.38 1019.70 1020.02 1020.22 1020.34 1020.38 1020.22 1019.94 1019.70 1019.54 1019.54 1019.58 1019.62 1019.66 1019.74 1019.74 1019.62 1019.58 1019.50
1021.70 1021.62 1021.62 1021.58 1021.54 1021.46 1021.34 1021.22 1021.14 1021.02 1020.90 1020.78 1020.70 1020.62 1020.54 1020.46 1020.42 1020.42 1020.46 1020.46 1020.46 1020.46 1020.50 1020.54 1020.62 1020.78 1020.90 1020.78 1020.62 1020.46 1020.38 1020.46 1020.54 1020.66 1020.94 1021.34 1021.54 1021.46 1021.14 1020.78 1020.34 1019.98 1019.78 1019.66 1019.54 1019.50 1019.42 1019.38 1019.30 1019.34 1019.50 1019.74 1020.02 1020.22 1020.38 1020.46 1020.30 1020.06 1019.86 1019.70 1019.66 1019.70 1019.74 1019.78 1019.82 1019.78 1019.78 1019.78 1019.82
1021.82 1021.74 1021.62 1021.62 1021.62 1021.58 1021.50 1021.42 1021.34 1021.18 1021.02 1020.90 1020.78 1020.66 1020.54 1020.46 1020.50 1020.50 1020.46 1020.46 1020.38 1020.34 1020.34 1020.34 1020.46 1020.82 1021.18 1021.26 1021.14 1020.90 1020.78 1020.74 1020.82 1021.02 1021.30 1021.66 1021.90 1021.86 1021.58 1021.18 1020.82 1020.58 1020.46 1020.34 1020.18 1020.10 1020.02 1019.90 1019.78 1019.78 1019.90 1020.06 1020.22 1020.38 1020.46 1020.46 1020.34 1020.18 1019.98 1019.90 1019.90 1019.90 1019.90 1019.94 1019.94 1019.98 1020.02 1020.02 1020.06
1021.90 1021.90 1021.82 1021.82 1021.82 1021.78 1021.74 1021.66 1021.54 1021.34 1021.18 1021.02 1020.82 1020.66 1020.58 1020.54 1020.54 1020.46 1020.34 1020.30 1020.18 1020.14 1020.10 1020.14 1020.34 1020.62 1020.98 1021.22 1021.30 1021.18 1021.02 1020.94 1020.98 1021.14 1021.46 1021.78 1022.02 1021.94 1021.74 1021.46 1021.18 1021.06 1020.98 1020.90 1020.78 1020.66 1020.54 1020.42 1020.30 1020.26 1020.30 1020.38 1020.46 1020.58 1020.62 1020.50 1020.42 1020.34 1020.26 1020.18 1020.18 1020.14 1020.14 1020.18 1020.18 1020.18 1020.22 1020.26 1020.26
1022.06 1022.06 1022.06 1022.02 1022.02 1021.90 1021.82 1021.74 1021.62 1021.50 1021.30 1021.10 1020.94 1020.78 1020.70 1020.62 1020.58 1020.46 1020.34 1020.22 1020.18 1020.14 1020.10 1020.10 1020.26 1020.46 1020.74 1020.98 1021.10 1021.10 1021.06 1021.06 1021.14 1021.26 1021.50 1021.74 1021.90 1021.90 1021.78 1021.66 1021.58 1021.50 1021.38 1021.26 1021.18 1021.06 1020.98 1020.86 1020.78 1020.70 1020.62 1020.62 1020.66 1020.70 1020.66 1020.58 1020.50 1020.50 1020.50 1020.46 1020.42 1020.38 1020.38 1020.38 1020.38 1020.38 1020.38 1020.38 1020.38
1022.34 1022.26 1022.18 1022.14 1022.06 1021.98 1021.90 1021.78 1021.70 1021.54 1021.38 1021.22 1021.10 1021.02 1020.90 1020.74 1020.66 1020.58 1020.46 1020.38 1020.34 1020.30 1020.26 1020.30 1020.42 1020.54 1020.62 1020.78 1020.90 1021.02 1021.10 1021.22 1021.42 1021.50 1021.62 1021.78 1021.94 1021.98 1021.94 1021.90 1021.86 1021.78 1021.70 1021.58 1021.50 1021.42 1021.34 1021.18 1021.10 1021.06 1020.98 1020.90 1020.90 1020.90 1020.78 1020.62 1020.58 1020.62 1020.62 1020.62 1020.62 1020.58 1020.54 1020.50 1020.50 1020.50 1020.46 1020.46 1020.46
1022.46 1022.38 1022.34 1022.26 1022.18 1022.10 1022.06 1021.90 1021.78 1021.62 1021.50 1021.42 1021.34 1021.30 1021.18 1021.06 1020.82 1020.74 1020.62 1020.58 1020.54 1020.54 1020.54 1020.58 1020.62 1020.62 1020.66 1020.78 1020.90 1021.10 1021.34 1021.54 1021.70 1021.78 1021.86 1021.94 1022.06 1022.14 1022.10 1022.06 1021.98 1021.90 1021.82 1021.78 1021.74 1021.62 1021.58 1021.54 1021.50 1021.42 1021.34 1021.26 1021.06 1020.90 1020.78 1020.66 1020.62 1020.62 1020.66 1020.70 1020.66 1020.62 1020.58 1020.54 1020.54 1020.50 1020.46 1020.46 1020.46
1022.54 1022.50 1022.46 1022.38 1022.30 1022.22 1022.18 1022.06 1021.94 1021.82 1021.74 1021.66 1021.62 1021.62 1021.50 1021.34 1021.14 1020.98 1020.86 1020.82 1020.82 1020.86 1020.86 1020.82 1020.90 1020.90 1020.90 1020.98 1021.10 1021.30 1021.50 1021.62 1021.78 1021.86 1021.94 1022.06 1022.10 1022.06 1022.06 1021.98 1021.94 1021.86 1021.78 1021.74 1021.70 1021.66 1021.66 1021.74 1021.78 1021.78 1021.66 1021.46 1021.18 1021.02 1020.86 1020.70 1020.66 1020.62 1020.66 1020.66 1020.62 1020.62 1020.58 1020.54 1020.50 1020.50 1020.46 1020.46 1020.46
1022.74 1022.66 1022.58 1022.50 1022.46 1022.42 1022.34 1022.22 1022.14 1022.06 1022.06 1022.06 1022.02 1021.98 1021.86 1021.74 1021.62 1021.46 1021.34 1021.30 1021.26 1021.22 1021.18 1021.26 1021.30 1021.34 1021.34 1021.34 1021.46 1021.54 1021.66 1021.78 1021.82 1021.90 1021.94 1022.02 1022.06 1022.02 1021.98 1021.94 1021.90 1021.82 1021.74 1021.62 1021.62 1021.62 1021.62 1021.78 1021.86 1021.86 1021.74 1021.50 1021.26 1021.06 1020.90 1020.78 1020.74 1020.70 1020.66 1020.62 1020.62 1020.58 1020.54 1020.50 1020.50 1020.46 1020.46 1020.46 1020.46
1022.94 1022.86 1022.74 1022.66 1022.62 1022.58 1022.46 1022.42 1022.34 1022.34 1022.38 1022.38 1022.38 1022.34 1022.26 1022.18 1022.14 1022.06 1021.98 1021.86 1021.70 1021.62 1021.70 1021.78 1021.78 1021.78 1021.74 1021.78 1021.82 1021.90 1021.94 1021.98 1021.98 1022.02 1022.06 1022.06 1022.06 1022.06 1021.98 1021.90 1021.90 1021.82 1021.74 1021.62 1021.62 1021.62 1021.66 1021.74 1021.78 1021.78 1021.66 1021.50 1021.30 1021.14 1021.02 1020.90 1020.82 1020.78 1020.70 1020.62 1020.62 1020.62 1020.58 1020.54 1020.50 1020.42 1020.38 1020.38 1020.42
1023.10 1023.02 1022.90 1022.86 1022.82 1022.74 1022.62 1022.58 1022.54 1022.62 1022.70 1022.74 1022.74 1022.70 1022.66 1022.62 1022.62 1022.62 1022.50 1022.34 1022.26 1022.26 1022.26 1022.26 1022.14 1022.06 1022.06 1022.06 1022.10 1022.18 1022.22 1022.26 1022.22 1022.18 1022.14 1022.06 1022.02 1021.90 1021.86 1021.78 1021.78 1021.78 1021.70 1021.62 1021.58 1021.58 1021.62 1021.62 1021.66 1021.66 1021.62 1021.46 1021.34 1021.22 1021.14 1021.02 1020.90 1020.82 1020.74 1020.70 1020.66 1020.66 1020.62 1020.54 1020.46 1020.34 1020.34 1020.34 1020.38
1023.22 1023.14 1023.06 1023.06 1022.94 1022.86 1022.78 1022.78 1022.82 1022.94 1023.06 1023.02 1023.06 1023.02 1023.02 1023.06 1023.02 1022.98 1022.90 1022.86 1022.90 1022.86 1022.74 1022.58 1022.42 1022.34 1022.30 1022.30 1022.26 1022.30 1022.34 1022.34 1022.26 1022.18 1022.06 1021.94 1021.82 1021.74 1021.66 1021.66 1021.62 1021.62 1021.62 1021.50 1021.50 1021.50 1021.50 1021.54 1021.54 1021.58 1021.54 1021.46 1021.34 1021.26 1021.18 1021.10 1020.98 1020.90 1020.82 1020.78 1020.70 1020.66 1020.62 1020.50 1020.42 1020.34 1020.34 1020.34 1020.30
1023.34 1023.26 1023.22 1023.18 1023.14 1023.06 1023.06 1023.06 1023.14 1023.18 1023.26 1023.26 1023.26 1023.26 1023.26 1023.26 1023.26 1023.26 1023.22 1023.22 1023.22 1023.18 1023.06 1022.86 1022.66 1022.50 1022.42 1022.34 1022.34 1022.30 1022.26 1022.22 1022.18 1022.06 1021.98 1021.90 1021.78 1021.66 1021.62 1021.62 1021.54 1021.50 1021.50 1021.46 1021.38 1021.42 1021.46 1021.50 1021.50 1021.50 1021.50 1021.46 1021.34 1021.26 1021.18 1021.10 1021.06 1020.98 1020.90 1020.82 1020.74 1020.62 1020.54 1020.46 1020.42 1020.38 1020.34 1020.30 1020.22
1023.46 1023.46 1023.46 1023.42 1023.34 1023.30 1023.30 1023.34 1023.34 1023.38 1023.42 1023.42 1023.42 1023.38 1023.34 1023.30 1023.30 1023.30 1023.26 1023.26 1023.26 1023.18 1023.06 1022.90 1022.78 1022.62 1022.46 1022.38 1022.30 1022.26 1022.18 1022.18 1022.14 1022.06 1021.98 1021.86 1021.74 1021.62 1021.58 1021.50 1021.50 1021.46 1021.38 1021.38 1021.34 1021.38 1021.42 1021.42 1021.42 1021.42 1021.42 1021.38 1021.34 1021.22 1021.18 1021.10 1021.06 1020.98 1020.90 1020.82 1020.74 1020.62 1020.54 1020.46 1020.42 1020.38 1020.30 1020.22 1020.18
1023.66 1023.66 1023.66 1023.62 1023.58 1023.58 1023.58 1023.58 1023.54 1023.54 1023.50 1023.50 1023.42 1023.34 1023.26 1023.18 1023.14 1023.10 1023.06 1023.06 1023.06 1023.02 1022.94 1022.82 1022.70 1022.54 1022.42 1022.30 1022.22 1022.18 1022.18 1022.14 1022.10 1022.06 1021.98 1021.86 1021.74 1021.62 1021.54 1021.50 1021.46 1021.42 1021.38 1021.34 1021.34 1021.34 1021.34 1021.30 1021.30 1021.30 1021.26 1021.26 1021.26 1021.18 1021.14 1021.06 1020.98 1020.90 1020.86 1020.78 1020.74 1020.66 1020.62 1020.54 1020.46 1020.38 1020.30 1020.26 1020.18
1023.90 1023.90 1023.90 1023.82 1023.78 1023.78 1023.78 1023.74 1023.66 1023.62 1023.58 1023.50 1023.34 1023.18 1023.06 1023.02 1022.94 1022.90 1022.90 1022.90 1022.90 1022.86 1022.82 1022.74 1022.62 1022.46 1022.38 1022.30 1022.18 1022.18 1022.14 1022.14 1022.06 1022.02 1021.90 1021.82 1021.74 1021.62 1021.54 1021.50 1021.42 1021.34 1021.34 1021.30 1021.30 1021.26 1021.22 1021.14 1021.10 1021.10 1021.10 1021.10 1021.10 1021.10 1021.06 1021.02 1020.94 1020.90 1020.86 1020.82 1020.78 1020.74 1020.66 1020.58 1020.50 1020.42 1020.34 1020.26 1020.26
1024.06 1024.06 1024.06 1023.98 1023.94 1023.94 1023.90 1023.78 1023.74 1023.62 1023.58 1023.46 1023.26 1023.10 1022.98 1022.90 1022.86 1022.82 1022.82 1022.82 1022.82 1022.78 1022.78 1022.70 1022.58 1022.46 1022.34 1022.30 1022.22 1022.14 1022.06 1022.02 1021.94 1021.90 1021.86 1021.78 1021.66 1021.58 1021.50 1021.38 1021.34 1021.26 1021.26 1021.22 1021.22 1021.18 1021.18 1021.06 1021.06 1020.98 1020.94 1020.98 1021.02 1021.06 1021.02 1020.98 1020.90 1020.90 1020.90 1020.86 1020.82 1020.78 1020.66 1020.58 1020.50 1020.46 1020.38 1020.34 1020.34
1024.26 1024.18 1024.14 1024.10 1024.06 1024.02 1023.94 1023.86 1023.78 1023.66 1023.54 1023.42 1023.26 1023.10 1023.02 1022.90 1022.90 1022.90 1022.86 1022.86 1022.82 1022.78 1022.74 1022.62 1022.50 1022.42 1022.34 1022.26 1022.18 1022.06 1021.98 1021.90 1021.86 1021.78 1021.74 1021.62 1021.50 1021.38 1021.34 1021.22 1021.18 1021.18 1021.18 1021.18 1021.14 1021.10 1021.06 1021.02 1020.98 1020.94 1020.90 1020.90 1020.98 1021.02 1020.98 1020.98 1020.94 1020.90 1020.90 1020.90 1020.86 1020.78 1020.66 1020.62 1020.54 1020.50 1020.46 1020.46 1020.46
1024.38 1024.30 1024.22 1024.18 1024.10 1024.06 1023.94 1023.86 1023.78 1023.62 1023.50 1023.34 1023.22 1023.14 1023.06 1023.02 1023.02 1022.98 1022.90 1022.86 1022.82 1022.78 1022.70 1022.62 1022.46 1022.38 1022.30 1022.18 1022.10 1022.02 1021.90 1021.82 1021.74 1021.66 1021.58 1021.46 1021.34 1021.26 1021.22 1021.18 1021.18 1021.18 1021.18 1021.14 1021.06 1020.98 1020.94 1020.90 1020.90 1020.90 1020.90 1020.94 1020.98 1021.02 1021.02 1020.98 1020.98 1020.94 1020.90 1020.90 1020.78 1020.70 1020.62 1020.62 1020.58 1020.54 1020.50 1020.50 1020.46
1024.46 1024.34 1024.30 1024.18 1024.10 1024.06 1023.94 1023.86 1023.74 1023.58 1023.46 1023.34 1023.22 1023.18 1023.14 1023.10 1023.06 1022.98 1022.90 1022.86 1022.78 1022.74 1022.66 1022.62 1022.46 1022.34 1022.22 1022.10 1022.02 1021.90 1021.78 1021.70 1021.62 1021.54 1021.46 1021.34 1021.30 1021.26 1021.18 1021.18 1021.10 1021.14 1021.14 1021.06 1020.94 1020.90 1020.86 1020.82 1020.86 1020.90 1020.90 1020.94 1020.98 1020.98 1021.02 1020.98 1020.94 1020.90 1020.90 1020.78 1020.74 1020.66 1020.62 1020.62 1020.58 1020.54 1020.46 1020.46 1020.38
1024.46 1024.42 1024.30 1024.18 1024.10 1024.06 1023.90 1023.78 1023.62 1023.50 1023.42 1023.34 1023.22 1023.18 1023.18 1023.14 1023.06 1022.98 1022.90 1022.82 1022.78 1022.70 1022.62 1022.58 1022.46 1022.34 1022.22 1022.10 1021.98 1021.86 1021.74 1021.62 1021.54 1021.50 1021.42 1021.34 1021.30 1021.22 1021.14 1021.06 1021.06 1021.06 1021.06 1020.94 1020.90 1020.86 1020.82 1020.86 1020.90 1020.90 1020.90 1020.90 1020.90 1020.90 1020.90 1020.90 1020.90 1020.86 1020.78 1020.74 1020.66 1020.62 1020.58 1020.58 1020.50 1020.46 1020.42 1020.34 1020.30
1024.50 1024.38 1024.30 1024.18 1024.10 1023.98 1023.86 1023.70 1023.58 1023.50 1023.38 1023.34 1023.30 1023.26 1023.18 1023.14 1023.10 1023.02 1022.90 1022.86 1022.78 1022.74 1022.62 1022.50 1022.42 1022.34 1022.22 1022.14 1022.06 1021.90 1021.78 1021.62 1021.58 1021.50 1021.42 1021.34 1021.26 1021.18 1021.06 1021.02 1021.02 1020.98 1020.94 1020.90 1020.90 1020.86 1020.86 1020.90 1020.90 1020.90 1020.90 1020.86 1020.82 1020.82 1020.78 1020.78 1020.78 1020.78 1020.74 1020.66 1020.62 1020.54 1020.50 1020.54 1020.46 1020.42 1020.34 1020.26 1020.18
1024.46 1024.38 1024.26 1024.14 1024.06 1023.94 1023.82 1023.66 1023.58 1023.50 1023.46 1023.42 1023.34 1023.30 1023.22 1023.18 1023.10 1023.06 1022.94 1022.90 1022.78 1022.74 1022.62 1022.50 1022.42 1022.34 1022.26 1022.14 1022.06 1021.98 1021.90 1021.74 1021.62 1021.50 1021.38 1021.34 1021.26 1021.14 1021.06 1021.02 1020.98 1020.98 1020.98 1020.90 1020.90 1020.90 1020.90 1020.90 1020.90 1020.86 1020.78 1020.78 1020.74 1020.74 1020.66 1020.62 1020.66 1020.66 1020.62 1020.62 1020.58 1020.54 1020.50 1020.46 1020.42 1020.34 1020.30 1020.18 1020.18
1024.46 1024.38 1024.26 1024.14 1024.06 1023.90 1023.78 1023.66 1023.58 1023.50 1023.50 1023.46 1023.42 1023.34 1023.26 1023.18 1023.10 1023.06 1022.98 1022.90 1022.78 1022.74 1022.62 1022.54 1022.46 1022.34 1022.26 1022.18 1022.06 1021.98 1021.90 1021.82 1021.70 1021.54 1021.38 1021.30 1021.22 1021.14 1021.10 1021.06 1021.06 1021.06 1021.02 1020.90 1020.82 1020.82 1020.86 1020.90 1020.82 1020.78 1020.78 1020.70 1020.62 1020.62 1020.58 1020.58 1020.58 1020.58 1020.58 1020.54 1020.54 1020.54 1020.54 1020.46 1020.42 1020.34 1020.26 1020.18 1020.14
1024.50 1024.42 1024.30 1024.18 1024.06 1023.90 1023.82 1023.74 1023.62 1023.58 1023.54 1023.50 1023.42 1023.34 1023.26 1023.18 1023.14 1023.06 1022.98 1022.90 1022.86 1022.78 1022.66 1022.62 1022.46 1022.38 1022.26 1022.18 1022.06 1021.94 1021.86 1021.78 1021.74 1021.62 1021.50 1021.34 1021.22 1021.18 1021.14 1021.14 1021.10 1021.06 1020.98 1020.90 1020.74 1020.70 1020.74 1020.78 1020.70 1020.70 1020.70 1020.66 1020.62 1020.58 1020.54 1020.50 1020.50 1020.50 1020.50 1020.50 1020.54 1020.58 1020.58 1020.50 1020.46 1020.34 1020.26 1020.18 1020.14
1024.54 1024.46 1024.34 1024.22 1024.10 1023.98 1023.90 1023.78 1023.74 1023.62 1023.58 1023.50 1023.46 1023.38 1023.34 1023.22 1023.14 1023.06 1023.06 1023.02 1022.90 1022.78 1022.70 1022.62 1022.50 1022.38 1022.30 1022.18 1022.06 1021.94 1021.82 1021.70 1021.66 1021.62 1021.58 1021.50 1021.34 1021.22 1021.22 1021.22 1021.14 1021.06 1020.94 1020.78 1020.66 1020.62 1020.62 1020.62 1020.62 1020.62 1020.62 1020.62 1020.58 1020.58 1020.54 1020.50 1020.46 1020.50 1020.50 1020.54 1020.58 1020.62 1020.62 1020.58 1020.46 1020.34 1020.26 1020.18 1020.14
1024.58 1024.46 1024.38 1024.26 1024.14 1024.06 1023.90 1023.82 1023.78 1023.74 1023.62 1023.54 1023.50 1023.42 1023.34 1023.22 1023.18 1023.18 1023.14 1023.06 1022.98 1022.82 1022.70 1022.62 1022.46 1022.38 1022.30 1022.18 1022.06 1021.98 1021.86 1021.74 1021.66 1021.62 1021.54 1021.50 1021.46 1021.42 1021.38 1021.30 1021.18 1021.06 1020.90 1020.74 1020.62 1020.62 1020.58 1020.54 1020.50 1020.50 1020.50 1020.50 1020.50 1020.46 1020.50 1020.50 1020.50 1020.46 1020.50 1020.54 1020.58 1020.58 1020.62 1020.58 1020.46 1020.38 1020.30 1020.18 1020.14
1024.62 1024.50 1024.38 1024.30 1024.18 1024.06 1023.94 1023.90 1023.82 1023.78 1023.66 1023.62 1023.54 1023.46 1023.34 1023.30 1023.30 1023.26 1023.18 1023.10 1022.98 1022.86 1022.74 1022.62 1022.50 1022.38 1022.26 1022.18 1022.10 1022.02 1021.90 1021.78 1021.66 1021.62 1021.54 1021.50 1021.50 1021.50 1021.46 1021.30 1021.18 1021.02 1020.90 1020.70 1020.62 1020.54 1020.50 1020.42 1020.38 1020.34 1020.34 1020.34 1020.38 1020.38 1020.42 1020.42 1020.46 1020.46 1020.50 1020.50 1020.54 1020.58 1020.54 1020.46 1020.42 1020.34 1020.30 1020.18 1020.14
1024.62 1024.50 1024.38 1024.34 1024.22 1024.10 1023.98 1023.90 1023.90 1023.78 1023.70 1023.62 1023.62 1023.54 1023.50 1023.46 1023.42 1023.34 1023.22 1023.10 1022.98 1022.90 1022.78 1022.62 1022.46 1022.34 1022.30 1022.22 1022.14 1022.06 1021.90 1021.82 1021.74 1021.62 1021.58 1021.58 1021.58 1021.50 1021.42 1021.30 1021.18 1020.98 1020.82 1020.66 1020.62 1020.54 1020.46 1020.38 1020.34 1020.26 1020.22 1020.26 1020.34 1020.34 1020.34 1020.38 1020.42 1020.46 1020.46 1020.46 1020.46 1020.46 1020.46 1020.38 1020.34 1020.26 1020.18 1020.14 1020.10
1024.62 1024.50 1024.42 1024.34 1024.26 1024.18 1024.06 1023.94 1023.90 1023.82 1023.78 1023.70 1023.66 1023.62 1023.62 1023.54 1023.46 1023.34 1023.26 1023.14 1023.02 1022.90 1022.78 1022.62 1022.50 1022.46 1022.38 1022.30 1022.18 1022.06 1021.98 1021.86 1021.74 1021.66 1021.62 1021.62 1021.62 1021.50 1021.38 1021.26 1021.18 1020.98 1020.78 1020.66 1020.62 1020.54 1020.46 1020.38 1020.30 1020.22 1020.14 1020.10 1020.26 1020.30 1020.34 1020.34 1020.38 1020.42 1020.42 1020.38 1020.34 1020.34 1020.34 1020.26 1020.18 1020.14 1020.10 1020.06 1020.06
1024.62 1024.54 1024.46 1024.38 1024.34 1024.22 1024.10 1023.94 1023.90 1023.86 1023.82 1023.74 1023.70 1023.70 1023.66 1023.58 1023.50 1023.38 1023.26 1023.14 1022.98 1022.78 1022.62 1022.54 1022.50 1022.46 1022.38 1022.26 1022.18 1022.10 1022.06 1021.90 1021.78 1021.70 1021.66 1021.66 1021.62 1021.54 1021.42 1021.26 1021.14 1020.98 1020.82 1020.66 1020.58 1020.50 1020.42 1020.34 1020.26 1020.18 1020.10 1020.06 1020.18 1020.26 1020.30 1020.34 1020.38 1020.38 1020.38 1020.34 1020.34 1020.26 1020.18 1020.14 1020.06 1020.06 1020.06 1020.02 1019.98
1024.62 1024.58 1024.50 1024.46 1024.38 1024.22 1024.10 1023.98 1023.90 1023.86 1023.82 1023.78 1023.74 1023.66 1023.62 1023.54 1023.46 1023.30 1023.14 1023.02 1022.86 1022.74 1022.62 1022.54 1022.50 1022.46 1022.38 1022.30 1022.18 1022.14 1022.06 1021.94 1021.86 1021.78 1021.78 1021.74 1021.66 1021.54 1021.42 1021.26 1021.18 1021.02 1020.82 1020.66 1020.58 1020.46 1020.38 1020.30 1020.22 1020.14 1020.06 1019.98 1020.10 1020.26 1020.34 1020.34 1020.38 1020.42 1020.38 1020.34 1020.30 1020.22 1020.14 1020.06 1019.98 1019.94 1019.94 1019.90 1019.90
1024.62 1024.54 1024.50 1024.46 1024.38 1024.26 1024.14 1024.06 1023.94 1023.86 1023.78 1023.74 1023.66 1023.62 1023.54 1023.50 1023.34 1023.18 1023.02 1022.90 1022.78 1022.66 1022.58 1022.54 1022.50 1022.46 1022.46 1022.34 1022.26 1022.14 1022.06 1021.98 1021.90 1021.82 1021.74 1021.66 1021.62 1021.50 1021.42 1021.30 1021.18 1021.02 1020.86 1020.66 1020.58 1020.46 1020.38 1020.26 1020.18 1020.14 1020.06 1019.98 1020.10 1020.30 1020.38 1020.42 1020.46 1020.46 1020.46 1020.46 1020.34 1020.22 1020.10 1020.02 1019.98 1019.90 1019.90 1019.86 1019.82
1024.62 1024.54 1024.50 1024.46 1024.38 1024.30 1024.18 1024.10 1023.98 1023.86 1023.78 1023.70 1023.62 1023.50 1023.42 1023.34 1023.22 1023.06 1022.90 1022.78 1022.66 1022.58 1022.54 1022.50 1022.46 1022.46 1022.34 1022.30 1022.22 1022.14 1022.06 1021.98 1021.90 1021.82 1021.74 1021.62 1021.54 1021.50 1021.42 1021.34 1021.18 1021.02 1020.86 1020.74 1020.62 1020.46 1020.38 1020.30 1020.18 1020.06 1019.98 1019.94 1020.14 1020.34 1020.46 1020.50 1020.54 1020.54 1020.58 1020.54 1020.46 1020.34 1020.18 1020.10 1020.02 1019.94 1019.90 1019.86 1019.78
1024.62 1024.50 1024.46 1024.42 1024.34 1024.26 1024.18 1024.10 1024.02 1023.90 1023.78 1023.62 1023.54 1023.42 1023.30 1023.18 1023.10 1023.02 1022.86 1022.74 1022.62 1022.54 1022.50 1022.46 1022.42 1022.38 1022.34 1022.18 1022.06 1022.06 1022.02 1021.94 1021.90 1021.82 1021.74 1021.62 1021.58 1021.54 1021.50 1021.38 1021.22 1021.02 1020.86 1020.78 1020.66 1020.54 1020.46 1020.34 1020.18 1020.06 1019.98 1020.02 1020.22 1020.38 1020.50 1020.54 1020.58 1020.62 1020.62 1020.54 1020.46 1020.34 1020.22 1020.18 1020.06 1020.02 1019.94 1019.90 1019.82
1024.50 1024.46 1024.42 1024.34 1024.30 1024.26 1024.18 1024.10 1024.02 1023.86 1023.74 1023.62 1023.50 1023.38 1023.26 1023.14 1023.06 1022.90 1022.78 1022.66 1022.62 1022.62 1022.58 1022.46 1022.42 1022.38 1022.34 1022.22 1022.06 1022.02 1021.98 1021.94 1021.90 1021.82 1021.74 1021.66 1021.62 1021.62 1021.54 1021.46 1021.30 1021.10 1020.94 1020.86 1020.74 1020.62 1020.46 1020.38 1020.26 1020.10 1020.06 1020.14 1020.34 1020.46 1020.50 1020.54 1020.54 1020.54 1020.54 1020.50 1020.42 1020.34 1020.22 1020.18 1020.06 1020.02 1019.94 1019.90 1019.86
1024.42 1024.34 1024.34 1024.34 1024.26 1024.22 1024.18 1024.10 1023.98 1023.86 1023.74 1023.62 1023.46 1023.34 1023.22 1023.10 1022.94 1022.82 1022.70 1022.66 1022.70 1022.66 1022.62 1022.46 1022.42 1022.34 1022.30 1022.22 1022.14 1022.06 1021.98 1021.90 1021.90 1021.78 1021.74 1021.70 1021.66 1021.62 1021.62 1021.50 1021.38 1021.22 1021.10 1020.90 1020.78 1020.62 1020.54 1020.46 1020.30 1020.18 1020.18 1020.30 1020.38 1020.46 1020.50 1020.54 1020.54 1020.54 1020.50 1020.46 1020.38 1020.30 1020.22 1020.18 1020.10 1020.06 1019.98 1019.90 1019.78
1024.34 1024.26 1024.22 1024.26 1024.22 1024.18 1024.10 1024.06 1023.90 1023.82 1023.70 1023.62 1023.46 1023.30 1023.18 1023.06 1022.94 1022.82 1022.74 1022.70 1022.70 1022.62 1022.54 1022.46 1022.42 1022.34 1022.26 1022.18 1022.14 1022.02 1021.90 1021.90 1021.82 1021.78 1021.78 1021.70 1021.70 1021.66 1021.62 1021.54 1021.42 1021.30 1021.18 1020.94 1020.82 1020.70 1020.58 1020.46 1020.38 1020.34 1020.34 1020.46 1020.50 1020.58 1020.62 1020.62 1020.62 1020.62 1020.58 1020.50 1020.42 1020.34 1020.26 1020.18 1020.10 1020.06 1019.94 1019.82 1019.66
1024.18 1024.14 1024.14 1024.18 1024.14 1024.10 1024.06 1023.98 1023.90 1023.74 1023.62 1023.54 1023.38 1023.26 1023.14 1023.06 1022.94 1022.86 1022.74 1022.62 1022.62 1022.58 1022.50 1022.46 1022.38 1022.26 1022.18 1022.10 1022.10 1022.02 1021.90 1021.82 1021.78 1021.78 1021.74 1021.70 1021.66 1021.62 1021.62 1021.54 1021.46 1021.34 1021.18 1020.98 1020.82 1020.74 1020.62 1020.54 1020.46 1020.46 1020.50 1020.62 1020.66 1020.66 1020.70 1020.70 1020.66 1020.62 1020.62 1020.50 1020.42 1020.34 1020.18 1020.10 1020.06 1019.94 1019.86 1019.74 1019.50
1024.10 1024.06 1024.06 1024.06 1024.06 1024.06 1024.02 1023.90 1023.78 1023.66 1023.54 1023.42 1023.34 1023.26 1023.14 1023.06 1022.98 1022.86 1022.70 1022.62 1022.54 1022.46 1022.38 1022.34 1022.26 1022.14 1022.06 1022.06 1022.06 1022.02 1021.90 1021.82 1021.74 1021.70 1021.70 1021.66 1021.62 1021.50 1021.50 1021.50 1021.50 1021.34 1021.18 1021.02 1020.86 1020.74 1020.66 1020.62 1020.58 1020.54 1020.62 1020.78 1020.78 1020.78 1020.78 1020.74 1020.70 1020.66 1020.58 1020.46 1020.34 1020.22 1020.06 1019.98 1019.90 1019.82 1019.70 1019.58 1019.38
1024.02 1023.94 1023.94 1023.94 1023.90 1023.90 1023.90 1023.86 1023.74 1023.58 1023.46 1023.34 1023.26 1023.18 1023.10 1023.02 1022.94 1022.86 1022.78 1022.62 1022.54 1022.42 1022.30 1022.22 1022.14 1022.06 1022.06 1022.06 1022.02 1021.98 1021.90 1021.86 1021.78 1021.70 1021.62 1021.62 1021.54 1021.50 1021.46 1021.46 1021.42 1021.34 1021.18 1021.06 1020.86 1020.78 1020.70 1020.66 1020.62 1020.62 1020.66 1020.78 1020.78 1020.78 1020.74 1020.74 1020.70 1020.62 1020.54 1020.38 1020.22 1020.10 1019.98 1019.86 1019.78 1019.66 1019.58 1019.42 1019.26
Wind_Speed
8 7 6 5 4 4 4 4 3 3 3 3 4 4 3 3 3 3 3 4 3 4 4 4 5 6 6 7 8 9 10 12 13 13 13 13 12 11 11 10 10 10 9 9 8 8 7 7 6 5 4 4 5 5 6 6 6 6 6 7 6 6 7 8 8 9 9 9 7
9 8 7 6 5 5 5 5 4 4 4 3 3 3 3 3 4 4 4 4 3 3 3 3 6 9 11 12 11 11 12 13 13 13 13 12 11 11 11 10 11 11 10 10 9 8 7 7 6 6 5 5 5 5 5 6 6 6 7 8 7 6 6 7 7 8 8 7 6
9 9 9 9 8 7 7 6 6 6 6 4 3 3 3 3 3 3 2 3 3 3 3 3 6 8 10 10 10 10 11 11 12 11 10 9 10 10 10 10 12 12 12 11 10 8 8 7 7 6 6 5 6 5 5 5 5 6 7 8 6 6 5 5 6 6 6 6 6
9 10 10 10 11 10 9 8 8 9 8 6 5 4 3 2 1 1 1 2 2 3 3 3 4 5 5 6 7 8 8 9 9 8 7 7 8 9 10 11 11 11 11 10 10 9 8 7 6 5 5 6 6 5 5 5 5 6 6 6 6 6 6 5 6 6 5 6 7
10 10 10 10 11 11 10 9 11 10 9 8 7 7 5 3 1 1 1 1 2 2 3 4 4 3 3 4 6 7 7 8 7 7 6 6 7 8 10 11 10 10 9 9 9 8 7 7 5 4 4 5 5 4 4 5 6 6 5 5 5 5 5 5 5 5 5 5 6
10 10 10 10 11 11 10 10 12 11 10 9 10 11 10 7 4 2 1 1 2 3 4 4 3 3 3 5 6 7 7 7 7 7 7 8 8 9 9 9 9 8 8 8 8 7 7 6 4 4 4 4 4 4 4 5 5 5 5 4 4 4 4 5 4 4 4 5 6
11 11 12 12 13 13 12 12 12 11 10 10 12 13 13 12 10 6 3 2 3 4 4 4 3 4 4 6 7 8 8 8 8 8 9 8 8 8 8 7 7 7 6 6 6 6 6 5 4 4 3 3 3 4 4 5 5 4 4 4 3 3 4 4 4 4 4 6 7
11 12 12 13 13 14 13 13 12 12 11 10 12 13 14 14 13 11 7 5 5 5 5 5 7 7 7 8 9 9 9 9 8 8 8 7 7 6 6 5 5 4 4 4 4 4 4 4 3 3 2 2 2 3 4 4 4 4 4 4 3 3 3 3 3 3 4 5 6
11 12 12 13 13 13 13 13 13 12 12 12 13 13 13 13 13 12 10 8 8 8 9 10 11 12 11 11 11 10 9 8 8 7 7 6 6 6 5 4 3 3 2 2 2 3 3 2 2 1 1 2 2 2 3 4 4 4 4 3 3 3 3 3 3 3 4 5 6
11 12 12 12 12 13 13 13 12 13 13 13 13 13 13 13 13 12 10 9 10 11 12 12 12 13 13 12 11 10 9 8 8 7 7 6 5 5 4 2 2 2 1 1 1 2 2 1 1 1 1 1 2 2 2 3 3 3 3 2 2 3 3 3 3 3 4 5 5
11 11 12 11 12 12 12 12 12 13 14 14 14 14 13 14 14 12 11 11 12 12 12 11 11 11 11 10 9 9 8 6 5 5 4 3 3 2 2 3 2 2 1 1 1 1 1 1 1 1 1 1 1 1 1 2 2 2 2 2 2 3 3 3 3 4 4 5 5
11 11 11 11 12 12 12 12 12 13 14 14 14 13 13 13 13 13 12 12 11 10 9 9 10 9 9 7 7 6 5 4 3 2 2 3 3 3 3 3 3 2 2 2 2 2 2 2 2 1 0 1 1 0 0 1 1 2 2 2 2 3 3 4 4 4 4 4 5
11 11 11 11 12 12 12 12 11 12 12 13 12 11 11 11 11 11 10 10 8 7 7 7 8 8 7 5 4 3 2 2 2 3 3 4 4 4 3 3 3 3 3 3 2 2 2 2 2 2 2 1 1 1 1 0 1 1 1 2 3 3 4 5 5 5 5 5 6
10 11 11 11 11 11 11 10 9 9 10 10 9 8 7 7 7 7 6 6 5 5 4 5 5 5 4 4 3 2 3 3 4 4 5 5 5 4 4 3 3 3 3 3 2 3 3 3 3 3 3 2 2 2 1 1 1 1 2 2 3 4 4 5 5 5 6 6 7
10 10 10 10 10 9 9 8 7 7 7 6 6 5 4 4 4 3 3 3 3 2 2 3 3 3 3 4 3 4 4 4 4 5 6 6 6 5 4 4 4 4 3 3 3 3 3 4 4 4 3 3 3 2 1 1 1 1 2 3 3 4 4 5 5 6 6 6 7
9 9 9 9 9 8 7 6 5 4 4 3 3 3 2 2 1 1 1 1 1 1 2 3 3 3 3 4 4 4 4 4 4 5 6 7 6 6 5 5 4 4 4 4 3 3 3 3 4 4 4 3 3 2 1 0 1 2 2 3 3 4 4 5 6 6 6 6 7
8 7 7 7 7 7 6 4 3 3 2 2 2 2 2 2 1 0 0 1 1 2 3 3 3 4 4 4 3 3 3 4 4 5 6 6 6 6 6 6 5 5 5 4 3 3 3 3 3 3 3 3 2 1 1 1 2 2 3 3 3 4 4 5 5 5 6 6 6
6 6 6 6 6 5 5 4 3 3 3 3 3 3 3 3 2 1 1 1 2 3 4 4 4 4 4 4 4 3 3 4 5 5 6 7 7 7 6 6 5 4 4 3 3 2 3 3 3 2 2 2 2 2 1 2 2 2 3 3 3 4 4 5 5 5 5 5 6
5 5 5 5 5 4 4 3 3 4 4 4 4 4 4 3 2 2 2 2 3 4 5 5 5 4 4 5 5 4 4 4 5 6 7 7 7 6 6 5 4 3 3 3 2 2 2 2 2 1 1 2 2 2 2 2 2 2 2 2 3 3 4 4 4 4 4 4 5
4 4 4 3 4 4 4 4 4 5 5 5 5 4 4 3 2 3 3 4 4 5 5 6 5 5 5 5 6 5 4 4 5 6 7 6 6 5 5 4 3 2 2 2 2 2 2 1 1 1 2 3 2 2 2 2 2 2 2 2 2 3 3 3 4 4 4 4 5
3 3 3 3 3 3 4 4 5 5 5 5 5 4 3 3 3 3 4 5 5 5 5 6 6 6 6 6 7 6 6 5 5 6 5 5 5 4 4 3 2 2 2 2 2 1 1 1 1 1 2 3 3 2 2 2 1 1 1 1 2 2 3 3 3 3 4 4 4
2 3 3 3 3 4 4 5 5 5 5 5 4 4 3 3 4 4 5 5 5 5 5 6 6 6 7 7 7 7 6 5 5 5 4 3 4 3 3 2 1 1 1 1 1 1 0 1 1 2 2 3 3 2 2 2 1 0 1 1 2 2 3 3 3 3 3 4 4
3 3 3 3 4 4 5 5 5 5 4 4 4 3 4 4 5 5 5 5 4 5 5 5 6 6 7 7 7 7 6 5 5 5 4 3 3 3 2 1 1 1 1 2 2 1 1 1 2 2 2 3 3 2 2 2 1 0 1 2 2 3 3 3 3 3 3 3 4
4 4 4 4 5 5 5 5 5 4 4 4 3 4 4 4 5 5 5 5 5 5 6 5 6 6 7 7 7 6 5 5 5 5 5 4 3 3 2 2 1 1 2 2 2 1 2 2 2 2 2 2 2 2 2 2 2 1 0 1 2 3 3 4 3 3 3 3 4
5 5 5 5 6 5 5 5 5 4 4 4 3 4 4 4 4 4 4 5 5 6 7 7 7 6 6 6 6 5 5 4 4 5 5 5 4 3 2 2 2 2 2 2 2 2 3 3 3 2 2 2 2 2 1 1 1 1 1 1 2 2 3 4 4 3 3 3 3
6 6 7 6 6 6 5 4 4 4 4 4 4 4 4 4 4 4 4 5 6 6 7 7 6 5 5 5 5 5 5 5 4 4 4 4 5 4 3 2 2 2 2 2 1 3 4 4 4 3 3 2 2 1 1 1 1 1 1 1 1 2 3 3 4 4 3 3 3
7 7 7 7 6 6 5 4 3 3 3 4 4 4 4 4 4 4 5 5 6 6 6 5 5 4 4 4 4 5 6 5 5 4 4 4 4 4 4 3 3 3 3 2 2 3 4 4 4 4 4 3 2 2 1 1 1 1 1 1 2 2 2 3 3 3 3 3 3
6 7 7 7 6 6 5 4 3 4 4 4 4 4 4 5 5 5 6 6 6 5 5 4 4 4 3 4 5 5 6 6 5 5 4 4 4 4 4 3 3 3 3 3 3 4 4 5 5 5 5 4 3 3 2 2 2 2 2 2 2 3 3 3 3 3 3 3 3
6 7 7 7 6 6 5 4 4 4 4 4 4 5 5 6 6 6 6 6 5 5 4 4 4 3 4 5 5 5 6 5 5 4 4 4 4 4 3 3 3 4 4 4 4 5 5 6 6 6 6 5 3 2 2 2 2 2 2 2 3 3 3 3 3 2 2 2 2
6 7 7 7 7 6 6 5 5 5 5 4 5 5 6 6 6 6 5 5 5 5 4 3 3 4 4 5 5 5 5 5 4 4 4 4 4 4 4 4 3 4 4 5 5 6 7 7 8 8 7 7 4 3 2 2 2 2 2 3 3 4 4 3 3 2 2 2 2
6 7 7 7 7 7 7 6 5 5 5 5 5 5 5 5 5 5 5 5 5 5 4 4 4 4 4 4 4 3 4 4 4 4 3 3 3 3 4 4 4 5 5 6 6 7 8 9 9 9 9 7 5 3 2 2 2 2 3 3 4 4 4 3 3 3 2 2 2
6 6 6 7 7 8 7 7 5 5 4 4 4 3 4 4 4 5 5 5 5 5 5 4 4 4 4 4 3 3 3 3 4 3 3 2 3 3 4 5 5 5 6 7 7 8 9 10 10 10 10 8 5 3 2 2 2 2 3 4 4 5 4 3 3 3 3 3 3
6 6 6 7 8 8 8 7 5 4 3 3 2 3 3 4 4 5 6 6 5 5 5 4 4 4 3 3 3 3 3 3 3 3 3 3 3 3 4 4 5 6 8 10 10 10 10 11 11 11 11 9 5 3 1 1 1 2 2 3 4 4 4 4 3 3 3 3 3
5 6 6 7 7 8 7 6 5 3 2 2 2 2 3 3 4 5 6 5 5 4 4 4 3 3 3 2 2 2 2 3 3 3 3 3 3 4 4 4 5 7 10 12 12 12 12 12 11 11 11 9 5 2 1 1 1 2 3 4 4 4 4 4 3 3 3 3 3
5 5 6 7 7 7 7 6 5 3 2 2 2 3 3 4 5 5 6 5 4 4 4 3 3 2 2 2 2 1 2 3 3 3 3 3 3 4 5 5 6 8 11 13 13 13 13 12 11 11 9 6 3 1 1 1 2 2 3 4 5 5 5 4 4 3 3 3 4
4 5 5 6 7 7 6 5 4 3 3 3 3 4 4 5 5 5 5 5 4 4 4 3 3 2 2 2 2 2 1 2 3 3 3 3 3 4 5 6 6 9 12 13 13 12 12 12 12 11 9 5 2 1 1 1 2 2 3 4 5 5 5 5 4 4 4 4 4
4 4 5 6 6 6 6 5 4 4 4 4 4 4 5 5 5 5 5 3 3 3 4 3 3 2 2 2 2 2 2 2 2 2 3 3 3 4 4 5 6 8 10 12 12 12 11 12 12 11 9 4 2 2 2 2 2 3 3 4 5 5 5 4 4 4 5 5 6
4 4 4 5 6 6 5 5 4 4 5 5 5 5 5 5 5 4 4 3 3 3 3 3 3 3 3 3 3 3 3 2 1 1 2 3 3 3 3 4 6 7 8 11 11 11 11 12 12 11 9 4 3 2 2 2 3 3 3 4 4 4 4 3 3 4 5 6 8
4 4 4 5 5 6 6 5 5 5 5 5 5 5 5 5 4 4 4 3 3 3 3 3 3 3 3 3 3 3 3 2 1 0 1 2 2 2 3 3 4 5 7 9 11 12 12 13 13 11 9 5 4 3 2 2 3 3 3 3 4 4 4 3 3 4 5 6 11
4 4 4 4 5 6 6 6 6 6 6 5 6 6 6 5 4 4 4 3 3 3 3 3 3 4 3 3 2 2 3 2 1 1 1 1 2 3 3 3 3 4 6 8 10 11 12 13 12 11 9 5 4 3 2 2 2 3 3 3 3 4 4 4 4 4 5 6 9
3 3 4 5 5 6 6 7 7 7 6 6 6 5 4 4 4 4 4 4 4 3 3 3 3 4 3 2 2 1 2 2 2 2 1 1 2 2 3 2 2 3 4 6 8 10 12 12 11 10 8 4 3 2 2 2 2 3 4 4 4 4 5 5 4 5 5 6 6
Wind_Direction
9 6 2 357 350 344 339 333 330 328 327 327 323 323 329 349 6 14 18 19 12 1 351 347 354 2 9 16 23 26 27 27 28 28 27 22 15 11 12 19 26 30 33 35 38 42 47 51 57 60 58 50 37 26 18 9 5 11 20 26 25 23 21 22 14 7 4 6 6
9 7 4 1 356 352 348 343 339 337 334 332 330 333 347 12 22 27 28 29 27 20 13 10 17 16 14 12 21 28 32 34 33 33 29 22 14 9 8 12 17 22 25 27 29 33 37 41 48 52 51 47 39 31 21 10 6 13 23 28 28 25 23 22 14 8 5 8 8
9 9 8 7 5 2 357 350 345 342 340 339 342 352 9 28 36 42 47 51 50 47 46 44 40 30 22 15 21 28 35 39 40 38 34 23 14 10 10 13 17 20 21 22 23 26 30 33 40 45 47 45 40 32 22 9 9 16 23 27 27 24 20 17 10 5 2 3 0
10 11 10 8 6 3 359 353 347 344 342 340 342 351 7 30 45 77 96 87 71 65 63 64 64 55 42 30 31 35 41 47 49 48 43 31 20 16 16 19 21 21 21 21 22 24 27 29 36 43 46 48 44 36 24 13 15 18 21 24 24 22 19 15 10 5 1 359 354
10 10 9 7 4 2 359 355 351 348 344 341 342 342 342 346 318 241 174 105 87 77 73 73 79 79 70 56 48 46 48 51 53 53 50 41 30 24 22 22 21 20 20 20 21 22 24 25 33 39 43 47 45 37 26 21 24 24 23 24 24 22 19 16 12 7 4 1 356
9 9 8 7 4 2 360 357 353 350 347 346 346 343 339 333 319 297 262 103 77 67 62 61 66 69 67 61 55 50 47 46 46 46 45 42 35 28 23 20 18 17 17 18 18 18 19 22 29 33 36 40 43 37 31 31 34 33 30 28 24 21 19 16 12 8 5 2 357
11 10 8 7 5 2 359 357 353 352 350 352 351 349 345 340 333 327 326 20 40 42 42 41 38 43 53 60 58 55 51 47 44 43 41 39 34 27 22 17 13 13 15 18 18 19 20 22 23 23 23 26 34 34 35 39 42 41 37 32 25 20 17 14 11 7 4 1 358
12 10 8 6 4 2 359 357 355 354 355 358 358 356 355 354 351 351 358 21 28 29 27 27 25 29 39 54 58 59 57 53 48 43 38 33 26 21 16 12 6 4 8 17 26 30 31 31 26 17 10 15 29 33 36 43 47 47 41 32 23 17 13 10 9 9 5 360 357
11 9 7 6 5 3 1 359 358 360 2 3 4 5 7 9 8 9 13 23 27 30 32 32 30 34 40 49 54 55 54 49 44 39 32 24 16 11 5 357 346 339 343 5 36 48 50 48 32 12 6 20 32 34 37 44 51 51 44 33 21 13 8 6 8 8 5 360 353
10 8 7 7 6 5 5 3 6 9 11 10 11 14 17 19 17 16 17 23 28 33 36 37 38 41 44 47 48 47 45 42 38 33 26 18 9 359 347 323 305 297 301 339 54 70 79 80 63 33 20 32 39 37 37 44 55 54 47 32 22 12 5 0 4 6 3 358 350
10 10 11 12 11 11 12 12 16 19 20 18 18 21 23 24 21 19 20 26 30 32 35 38 42 44 46 45 43 40 37 33 28 21 12 358 335 307 279 254 248 243 236 208 158 138 129 126 115 91 40 7 18 29 33 41 54 53 45 31 23 14 6 359 1 3 1 355 347
12 14 17 18 18 19 21 22 26 27 26 24 24 25 26 27 24 23 25 27 29 29 31 35 40 43 43 40 36 33 28 21 6 339 304 285 276 264 251 240 235 226 215 204 188 173 158 151 142 142 167 274 278 296 1 40 50 47 38 26 24 16 9 1 1 360 358 353 348
17 21 23 24 25 27 28 29 32 32 31 29 28 27 27 29 28 28 28 28 27 27 28 31 36 36 33 28 21 11 350 318 291 281 280 283 285 281 267 249 238 228 219 213 198 182 170 165 159 162 178 223 246 248 232 141 70 51 36 23 20 15 8 1 358 356 354 353 350
24 28 30 30 31 32 33 32 33 34 33 32 30 29 28 29 30 32 33 34 32 28 23 20 21 19 12 1 344 318 294 280 283 291 300 306 306 302 289 266 248 237 229 224 210 194 183 179 174 174 180 198 221 230 225 183 110 65 41 28 20 12 5 358 355 354 353 352 349
30 33 35 35 35 35 35 33 33 32 32 32 31 29 28 28 30 34 39 44 40 26 8 357 350 345 339 328 311 296 287 284 295 306 313 313 308 302 291 275 256 244 236 230 221 209 199 190 184 182 183 189 204 216 220 184 91 57 40 30 19 9 1 354 352 352 352 350 347
34 36 37 37 37 36 34 31 29 27 26 25 25 23 20 14 20 31 43 39 17 349 334 329 321 317 312 305 296 290 287 290 299 306 308 305 300 293 284 272 256 244 237 230 227 223 218 207 195 188 184 184 188 195 201 91 53 41 32 23 15 7 359 352 351 349 348 347 344
35 37 36 35 34 32 29 25 19 13 5 356 353 352 347 336 327 310 303 343 328 316 308 305 301 299 298 295 288 286 285 288 292 295 295 293 288 283 277 269 256 245 234 226 225 229 233 232 216 199 182 167 159 148 112 58 46 35 26 17 10 3 357 352 349 346 344 342 338
35 34 32 30 26 22 17 10 0 347 334 326 324 323 323 319 310 300 294 312 307 301 296 294 292 291 291 291 287 284 281 280 280 281 282 281 279 277 276 273 263 250 237 227 224 228 236 240 231 208 165 130 119 107 88 64 49 37 24 13 5 359 354 349 344 341 338 336 332
31 28 24 20 13 5 356 346 335 326 320 316 317 317 316 317 312 304 299 295 288 285 285 288 288 287 285 286 285 283 277 273 272 274 275 277 280 283 285 286 276 262 246 237 232 232 236 239 231 189 121 105 100 92 80 68 54 39 24 10 360 353 347 341 335 332 329 329 330
22 16 10 3 354 344 334 325 321 319 316 315 316 316 314 307 298 292 288 285 280 278 279 281 283 284 284 284 284 282 277 271 272 274 278 283 290 293 294 291 282 265 249 244 242 242 243 239 211 133 112 107 101 92 80 68 53 36 16 0 352 344 337 331 326 324 324 329 333
4 353 343 337 331 323 317 314 317 318 318 318 318 314 305 291 283 279 278 278 280 280 279 279 282 284 287 287 287 285 282 279 278 278 281 289 292 291 286 279 266 255 250 253 258 256 248 208 134 121 120 115 109 104 96 81 60 30 354 338 336 332 327 322 318 319 324 332 337
332 324 321 319 314 309 308 311 316 318 319 320 317 308 296 285 280 279 278 280 282 282 282 282 286 289 290 289 288 287 287 288 287 284 284 287 286 283 277 264 252 256 270 282 280 275 234 115 125 132 132 124 120 121 121 116 104 33 327 327 329 327 322 315 311 312 320 332 339
312 311 309 309 307 308 310 314 317 318 319 318 310 300 292 288 286 285 285 286 285 287 289 292 295 295 294 291 290 290 291 294 295 295 296 294 291 290 289 285 277 283 284 281 272 249 167 133 143 145 143 135 137 140 145 146 149 163 320 328 328 324 317 309 304 307 317 332 340
312 309 306 303 305 310 315 319 321 320 318 312 304 296 292 289 288 289 290 292 294 298 302 305 305 303 301 298 296 294 294 296 302 306 309 311 306 306 311 317 310 289 275 267 248 210 174 161 164 164 160 156 156 158 163 167 165 169 268 321 319 314 309 302 300 305 318 332 336
318 313 308 304 306 311 317 323 323 320 313 307 301 297 294 291 291 293 299 305 309 311 312 312 310 309 308 306 303 302 302 304 310 313 314 315 315 319 325 330 315 296 281 267 226 182 167 172 172 172 171 171 166 165 172 183 183 186 208 278 295 299 300 300 301 306 316 328 329
324 319 312 306 306 311 318 322 319 314 310 307 306 304 300 297 300 307 314 318 316 316 315 314 313 312 311 310 313 317 321 323 322 320 316 315 318 325 331 330 314 300 286 264 177 155 159 171 175 176 174 170 163 164 183 221 216 214 221 246 261 276 284 293 299 306 313 321 320
329 323 316 309 309 311 315 315 315 314 312 310 309 307 306 309 318 323 324 321 317 316 315 315 314 312 311 317 328 333 335 334 332 329 324 321 324 326 327 321 309 296 282 250 172 160 166 177 183 183 180 172 169 173 189 225 235 235 236 246 248 252 258 268 281 293 304 314 313
329 324 319 316 313 311 310 311 315 313 310 308 308 311 316 323 327 326 323 319 317 318 318 317 313 314 321 334 339 340 340 339 339 338 337 337 332 327 322 316 304 291 276 245 201 189 191 195 198 197 193 186 180 180 187 204 224 233 240 242 242 242 242 247 257 272 288 300 303
327 326 325 322 315 311 309 310 310 307 305 308 315 323 328 330 327 324 323 322 323 322 320 314 315 325 337 342 341 342 342 343 344 348 352 351 340 330 321 313 303 289 275 252 226 217 216 217 216 212 208 199 192 186 187 194 209 223 233 237 235 234 235 239 245 253 266 276 286
329 330 329 325 318 314 310 306 303 305 309 318 328 332 332 329 327 327 327 327 323 317 311 309 321 332 337 336 340 342 344 341 347 356 1 354 341 330 322 315 305 292 279 263 245 238 236 236 235 232 225 215 205 195 193 197 206 218 229 235 233 231 230 232 236 242 248 257 272
331 332 331 327 321 314 308 304 307 314 323 332 336 335 333 332 332 330 327 322 314 310 309 314 325 328 328 328 336 340 341 340 349 356 359 350 335 324 317 315 311 303 294 282 265 255 252 250 249 247 242 230 218 209 205 210 215 222 230 236 235 233 230 228 228 232 237 245 258
332 333 332 328 320 313 308 307 314 322 330 334 335 338 340 339 331 324 318 312 308 309 312 318 322 322 321 323 329 333 336 341 346 348 345 335 323 319 319 321 320 316 311 306 291 279 271 266 262 259 255 247 237 225 218 226 230 235 240 243 241 238 234 229 228 229 232 237 243
331 332 331 327 319 314 311 311 317 321 325 326 334 342 342 332 320 314 310 306 305 307 309 310 309 306 304 306 312 322 331 336 337 335 330 325 324 327 330 331 328 326 325 324 316 307 298 289 282 276 269 260 254 243 232 248 258 263 264 261 256 251 245 238 235 236 238 241 243
329 330 329 325 318 314 312 311 312 311 310 316 330 330 322 312 306 304 302 301 302 303 303 297 287 275 268 266 278 305 324 329 329 329 328 328 335 343 344 340 333 332 334 335 332 329 325 318 309 298 287 275 271 270 302 313 307 298 288 283 281 277 271 261 254 250 251 253 256
323 327 327 323 317 313 309 306 301 296 294 307 311 306 299 296 295 295 295 296 300 304 302 292 279 269 265 268 278 304 328 331 327 325 329 336 350 355 351 341 334 335 338 340 340 341 342 344 339 328 316 302 302 326 357 333 316 306 301 299 298 296 293 288 282 278 274 272 273
315 321 323 319 314 309 303 297 291 287 288 297 298 295 294 293 293 292 293 296 303 304 300 291 287 288 292 296 303 310 317 318 318 323 332 349 3 2 354 342 336 338 341 343 344 346 352 1 1 357 351 348 353 3 356 337 318 310 308 307 304 303 302 303 302 299 294 288 284
305 314 317 315 309 302 294 286 284 287 292 295 294 294 293 293 293 293 295 300 305 302 295 288 286 285 285 282 284 280 277 278 300 325 342 358 8 4 355 345 339 339 342 345 346 350 359 10 11 12 14 17 8 354 342 336 327 321 317 314 310 308 307 307 306 302 298 293 291
297 307 312 311 304 296 289 284 286 291 293 294 294 293 294 293 293 293 293 293 295 293 289 286 279 270 262 258 265 270 272 267 280 340 0 1 2 2 357 348 341 340 344 348 351 357 5 12 13 19 26 30 12 357 349 345 338 331 326 321 316 311 307 304 302 298 295 293 300
290 300 306 306 298 292 288 287 289 290 291 291 292 294 296 296 294 290 286 277 275 278 281 279 268 259 253 252 264 277 285 282 279 10 22 359 345 354 2 358 344 343 346 352 359 7 12 13 16 24 34 40 27 16 9 360 347 336 326 319 314 310 305 300 298 297 295 293 304
283 292 299 297 292 289 287 289 289 288 289 291 294 295 297 298 293 289 285 282 278 275 271 265 258 255 252 250 261 282 297 304 311 337 358 326 332 354 7 10 351 346 348 356 7 14 18 16 19 29 41 51 41 35 28 15 355 338 325 315 313 311 309 305 301 298 296 294 301
279 288 292 290 288 286 286 288 289 290 291 293 294 294 295 298 297 298 298 297 292 284 274 260 256 256 255 250 252 278 307 318 318 314 303 295 324 351 6 14 359 350 349 355 10 18 20 18 20 28 40 61 55 47 37 21 354 334 321 313 312 312 311 309 304 300 295 294 294